Terminal Aerodrome Forecast
Issued by NWS Twin Cities, MN

Home | Current Version | Previous Version | Graphics & Text | Print | Product List | Glossary On
Versions: 1 2 3 4 5 6 7 8 9 10 11 12 13 14 15 16 17 18 19 20 21 22 23 24 25 26 27 28 29 30
000
FTUS43 KMPX 230500 RRA
TAFMSP
TAF
KMSP 230547Z 2306/2412 16008KT 5SM BR FEW008 OVC015
     FM231400 22005KT 6SM BR OVC080
     FM232100 31008KT P6SM OVC080
     FM240300 31014G23KT 3SM -SN OVC015
     FM240700 31016G27KT 6SM -SHSN OVC017=

USA.gov is the U.S. government's official web portal to all federal, state and local government web resources and services.